Powrót do katalogu

STARLINK-2603

AktywnyŁącznośćVLEO
NORAD 48375·PAYLOAD·🇺🇸 United States

Wystrzelony May 4, 2021 z Cape Canaveral Space Force Station

Loading…

Następne Przeloty (najbliższe 24 godziny)

TLE

ŚwieżeSource: CelesTrak SupGP

Epoka: Sep 14, 2026, 22:12 UTC

1 48375C 21038Y   26257.92548611 -.00016879  00000+0 -54279-3 0  2578
2 48375  53.1585 187.1439 0001427  91.8302 135.7721 15.31710008    19

Śledź STARLINK-2603 w czasie rzeczywistym z AllMySat

Download on the App Store